TimeEDT,TemperatureF,Dew PointF,Humidity,Sea Level PressureIn,VisibilityMPH,Wind Direction,Wind SpeedMPH,Gust SpeedMPH,PrecipitationIn,Events,Conditions,WindDirDegrees,DateUTC
12:52 AM,7.0,1.9,80,29.90,10.0,Calm,Calm,-,N/A,,Clear,0,2013-03-17 04:52:00
1:52 AM,6.1,1.0,80,29.91,10.0,Calm,Calm,-,N/A,,Clear,0,2013-03-17 05:52:00
2:52 AM,3.9,-0.9,80,29.91,10.0,Calm,Calm,-,N/A,,Clear,0,2013-03-17 06:52:00
3:52 AM,1.9,-2.9,80,29.92,10.0,Calm,Calm,-,N/A,,Clear,0,2013-03-17 07:52:00
4:52 AM,1.9,-2.9,80,29.94,10.0,Calm,Calm,-,N/A,,Mostly Cloudy,0,2013-03-17 08:52:00
5:52 AM,1.0,-5.1,75,29.94,10.0,Calm,Calm,-,N/A,,Clear,0,2013-03-17 09:52:00
6:52 AM,1.9,-2.9,80,29.95,10.0,Calm,Calm,-,N/A,,Clear,0,2013-03-17 10:52:00
7:52 AM,3.9,-0.9,80,29.96,10.0,Calm,Calm,-,N/A,,Clear,0,2013-03-17 11:52:00
8:52 AM,16.0,1.0,52,29.99,10.0,Variable,6.9,-,N/A,,Overcast,0,2013-03-17 12:52:00
9:52 AM,18.0,1.9,50,30.00,10.0,West,8.1,-,N/A,,Mostly Cloudy,270,2013-03-17 13:52:00
10:52 AM,19.0,3.9,52,30.02,10.0,NW,8.1,17.3,N/A,,Mostly Cloudy,310,2013-03-17 14:52:00
12:52 PM,19.9,1.0,44,30.06,10.0,NW,9.2,38.0,0.00,,Overcast,310,2013-03-17 16:52:00
1:52 PM,23.0,-0.9,35,30.06,10.0,WNW,15.0,28.8,0.00,,Overcast,290,2013-03-17 17:52:00
2:52 PM,19.9,1.9,46,30.08,10.0,NNW,15.0,21.9,0.00,,Overcast,330,2013-03-17 18:52:00
3:52 PM,21.9,1.0,40,30.09,10.0,WNW,13.8,28.8,N/A,,Overcast,290,2013-03-17 19:52:00
5:52 PM,19.9,-6.0,32,30.14,10.0,WNW,10.4,23.0,N/A,,Partly Cloudy,300,2013-03-17 21:52:00
6:52 PM,18.0,-6.0,35,30.18,10.0,WNW,9.2,18.4,N/A,,Clear,300,2013-03-17 22:52:00
7:52 PM,17.1,-2.9,41,30.23,10.0,Variable,6.9,-,N/A,,Clear,0,2013-03-17 23:52:00
8:52 PM,16.0,-2.9,43,30.25,10.0,WSW,3.5,-,N/A,,Clear,250,2013-03-18 00:52:00
9:52 PM,15.1,-2.9,45,30.28,10.0,WSW,6.9,-,N/A,,Clear,250,2013-03-18 01:52:00
10:52 PM,14.0,-4.0,45,30.29,10.0,WSW,4.6,-,N/A,,Clear,250,2013-03-18 02:52:00
11:52 PM,14.0,-5.1,43,30.30,10.0,Variable,3.5,-,N/A,,Clear,0,2013-03-18 03:52:00